TimeEST,TemperatureF,Dew PointF,Humidity,Sea Level PressureIn,VisibilityMPH,Wind Direction,Wind SpeedMPH,Gust SpeedMPH,PrecipitationIn,Events,Conditions,WindDirDegrees,DateUTC
12:14 AM,25.3,22.1,87,30.36,7.0,North,3.5,-,N/A,,Overcast,350,2013-12-07 05:14:00
12:34 AM,25.5,22.1,87,30.36,10.0,NNW,4.6,-,N/A,,Overcast,330,2013-12-07 05:34:00
12:54 AM,25.3,21.9,87,30.36,10.0,NNW,5.8,-,N/A,,Overcast,330,2013-12-07 05:54:00
1:14 AM,25.3,21.9,87,30.35,10.0,NW,4.6,-,N/A,,Overcast,320,2013-12-07 06:14:00
1:34 AM,25.2,21.9,87,30.35,7.0,NNW,4.6,-,N/A,,Overcast,340,2013-12-07 06:34:00
1:54 AM,25.3,22.1,87,30.36,10.0,NNW,4.6,-,N/A,,Overcast,330,2013-12-07 06:54:00
2:14 AM,25.5,21.9,86,30.36,10.0,NNW,5.8,-,N/A,,Overcast,330,2013-12-07 07:14:00
2:34 AM,25.5,21.6,85,30.38,10.0,NNW,8.1,-,N/A,,Overcast,340,2013-12-07 07:34:00
2:54 AM,25.5,20.8,82,30.39,10.0,North,5.8,-,N/A,,Overcast,350,2013-12-07 07:54:00
3:15 AM,25.3,19.6,79,30.40,10.0,NNW,10.4,-,N/A,,Overcast,340,2013-12-07 08:15:00
3:34 AM,25.2,19.4,79,30.40,10.0,North,8.1,-,N/A,,Overcast,360,2013-12-07 08:34:00
3:54 AM,24.8,19.2,79,30.41,10.0,North,8.1,-,N/A,,Overcast,360,2013-12-07 08:54:00
4:15 AM,24.6,19.2,80,30.41,10.0,North,8.1,-,N/A,,Overcast,360,2013-12-07 09:15:00
4:34 AM,24.4,18.9,79,30.42,10.0,NNW,8.1,-,N/A,,Overcast,330,2013-12-07 09:34:00
4:54 AM,23.9,18.5,80,30.43,10.0,NNW,9.2,-,N/A,,Overcast,340,2013-12-07 09:54:00
5:15 AM,23.4,18.0,80,30.44,10.0,NNW,8.1,-,N/A,,Overcast,340,2013-12-07 10:15:00
5:34 AM,23.2,17.6,79,30.45,10.0,NNW,5.8,-,N/A,,Overcast,330,2013-12-07 10:34:00
5:54 AM,22.8,16.7,77,30.45,10.0,NNW,8.1,-,N/A,,Overcast,340,2013-12-07 10:54:00
6:15 AM,22.6,16.7,78,30.46,10.0,NNW,8.1,-,N/A,,Overcast,340,2013-12-07 11:15:00
6:34 AM,22.5,16.7,79,30.48,10.0,North,9.2,-,N/A,,Overcast,360,2013-12-07 11:34:00
6:54 AM,21.2,15.6,79,30.48,10.0,North,5.8,-,N/A,,Overcast,10,2013-12-07 11:54:00
7:15 AM,21.6,14.0,73,30.49,10.0,North,8.1,-,N/A,,Mostly Cloudy,360,2013-12-07 12:15:00
7:34 AM,20.3,12.2,71,30.49,10.0,North,5.8,-,N/A,,Scattered Clouds,360,2013-12-07 12:34:00
7:54 AM,19.8,12.0,72,30.50,10.0,North,4.6,-,N/A,,Mostly Cloudy,360,2013-12-07 12:54:00
8:14 AM,20.1,12.6,73,30.51,10.0,Calm,Calm,-,N/A,,Overcast,0,2013-12-07 13:14:00
8:34 AM,20.5,12.7,72,30.52,10.0,North,4.6,-,N/A,,Mostly Cloudy,10,2013-12-07 13:34:00
8:54 AM,21.0,13.1,71,30.53,10.0,NNE,3.5,-,N/A,,Clear,20,2013-12-07 13:54:00
9:14 AM,21.7,11.7,65,30.53,10.0,NNE,4.6,-,N/A,,Clear,30,2013-12-07 14:14:00
9:34 AM,22.1,11.5,64,30.54,10.0,NNE,6.9,-,N/A,,Clear,30,2013-12-07 14:34:00
9:54 AM,22.1,11.3,63,30.55,10.0,NE,5.8,-,N/A,,Clear,50,2013-12-07 14:54:00
10:14 AM,22.6,11.5,62,30.55,10.0,NE,5.8,-,N/A,,Clear,50,2013-12-07 15:14:00
10:34 AM,23.2,11.3,60,30.56,10.0,ENE,4.6,-,N/A,,Clear,60,2013-12-07 15:34:00
10:54 AM,23.7,11.8,61,30.56,10.0,NE,3.5,-,N/A,,Clear,50,2013-12-07 15:54:00
11:14 AM,24.3,11.7,59,30.56,10.0,North,3.5,-,N/A,,Clear,10,2013-12-07 16:14:00
11:35 AM,24.6,11.7,58,30.56,10.0,NNE,4.6,-,N/A,,Clear,20,2013-12-07 16:35:00
11:54 AM,25.0,12.0,58,30.56,10.0,North,5.8,-,N/A,,Scattered Clouds,10,2013-12-07 16:54:00
12:14 PM,24.6,11.7,58,30.55,10.0,North,6.9,-,N/A,,Mostly Cloudy,360,2013-12-07 17:14:00
12:35 PM,25.2,11.8,57,30.54,10.0,NNE,5.8,-,N/A,,Scattered Clouds,20,2013-12-07 17:35:00
12:54 PM,25.2,12.2,58,30.54,10.0,NNE,6.9,-,N/A,,Clear,30,2013-12-07 17:54:00
1:14 PM,25.2,11.8,57,30.53,10.0,NNE,8.1,-,N/A,,Clear,30,2013-12-07 18:14:00
1:34 PM,25.5,12.2,57,30.53,10.0,NNE,6.9,-,N/A,,Clear,30,2013-12-07 18:34:00
1:54 PM,25.2,12.0,58,30.54,10.0,North,4.6,-,N/A,,Scattered Clouds,360,2013-12-07 18:54:00
2:15 PM,24.6,12.0,59,30.53,10.0,North,8.1,-,N/A,,Scattered Clouds,360,2013-12-07 19:15:00
2:34 PM,24.8,12.0,58,30.53,10.0,North,4.6,-,N/A,,Clear,360,2013-12-07 19:34:00
2:54 PM,24.6,12.7,61,30.52,10.0,North,8.1,-,N/A,,Clear,360,2013-12-07 19:54:00
3:14 PM,23.7,12.6,62,30.52,10.0,North,8.1,-,N/A,,Clear,10,2013-12-07 20:14:00
3:34 PM,23.5,12.0,61,30.52,10.0,North,5.8,-,N/A,,Scattered Clouds,10,2013-12-07 20:34:00
3:55 PM,23.2,12.0,62,30.53,10.0,NNW,5.8,-,N/A,,Clear,340,2013-12-07 20:55:00
4:14 PM,23.0,12.0,63,30.54,10.0,North,6.9,-,N/A,,Clear,350,2013-12-07 21:14:00
4:34 PM,23.0,12.2,63,30.54,10.0,North,5.8,-,N/A,,Mostly Cloudy,350,2013-12-07 21:34:00
4:55 PM,22.8,12.9,66,30.55,10.0,North,6.9,-,N/A,,Overcast,350,2013-12-07 21:55:00
5:14 PM,22.8,12.7,65,30.55,10.0,North,3.5,-,N/A,,Overcast,10,2013-12-07 22:14:00
5:34 PM,21.7,12.4,67,30.55,10.0,North,3.5,-,N/A,,Mostly Cloudy,10,2013-12-07 22:34:00
5:55 PM,21.0,12.4,69,30.56,10.0,Calm,Calm,-,N/A,,Scattered Clouds,0,2013-12-07 22:55:00
6:14 PM,20.8,12.7,71,30.56,10.0,Calm,Calm,-,N/A,,Clear,0,2013-12-07 23:14:00
6:34 PM,13.6,6.8,74,30.56,10.0,Calm,Calm,-,N/A,,Clear,0,2013-12-07 23:34:00
6:55 PM,12.2,8.4,85,30.56,10.0,Calm,Calm,-,N/A,,Clear,0,2013-12-07 23:55:00
7:14 PM,9.9,5.0,81,30.57,10.0,Calm,Calm,-,N/A,,Clear,0,2013-12-08 00:14:00
7:34 PM,12.6,9.7,88,30.57,10.0,Calm,Calm,-,N/A,,Clear,0,2013-12-08 00:34:00
7:55 PM,11.3,8.2,87,30.57,10.0,Calm,Calm,-,N/A,,Clear,0,2013-12-08 00:55:00
8:14 PM,9.3,5.9,86,30.57,10.0,Calm,Calm,-,N/A,,Clear,0,2013-12-08 01:14:00
8:34 PM,11.3,8.6,89,30.57,10.0,Calm,Calm,-,N/A,,Clear,0,2013-12-08 01:34:00
8:55 PM,14.7,10.8,84,30.56,10.0,Calm,Calm,-,N/A,,Clear,0,2013-12-08 01:55:00
9:14 PM,13.5,11.3,91,30.56,10.0,North,3.5,-,N/A,,Clear,360,2013-12-08 02:14:00
9:34 PM,10.8,8.2,90,30.57,7.0,Calm,Calm,-,N/A,,Clear,0,2013-12-08 02:34:00
9:55 PM,15.3,12.2,88,30.57,10.0,NNW,3.5,-,N/A,,Clear,340,2013-12-08 02:55:00
10:14 PM,12.0,8.6,86,30.56,7.0,Calm,Calm,-,N/A,,Clear,0,2013-12-08 03:14:00
10:34 PM,7.5,4.1,86,30.57,4.0,Calm,Calm,-,N/A,,Clear,0,2013-12-08 03:34:00
10:55 PM,10.4,7.9,90,30.55,4.0,Calm,Calm,-,N/A,,Clear,0,2013-12-08 03:55:00
11:14 PM,12.2,9.5,89,30.54,5.0,Calm,Calm,-,N/A,,Clear,0,2013-12-08 04:14:00
11:34 PM,7.5,4.1,86,30.54,7.0,Calm,Calm,-,N/A,,Clear,0,2013-12-08 04:34:00
11:55 PM,8.6,5.5,87,30.54,7.0,Calm,Calm,-,N/A,,Clear,0,2013-12-08 04:55:00